Weather Roundup
Issued by NWS Chicago, IL

Home | Current Version | Previous Version | Text Only | Print | Product List | Glossary On
Versions: 1 2 3 4 5 6 7 8 9 10 11 12 13 14 15 16 17 18 19 20 21 22 23 24 25 26 27 28 29 30 31 32 33 34 35 36 37 38 39 40 41 42 43 44 45 46 47 48 49 50
000
NZUS59 KLOT 181508
HRRLOT

CHICAGO AREA WEATHER ROUNDUP
NATIONAL WEATHER SERVICE CHICAGO/ROMEOVILLE IL
900 AM CST THU JAN 18 2018

NOTE: "FAIR" INDICATES FEW OR NO CLOUDS BELOW 12,000 FEET WITH NO
SIGNIFICANT WEATHER AND/OR OBSTRUCTIONS TO VISIBILITY.

* THESE STATIONS ARE NOT UNDER NWS QUALITY CONTROL. THEY ALSO MAY NOT
  REPORT WEATHER SUCH AS PRECIPITATION OR FOG.

ILZ005-006-012>014-019>023-181600-
NORTHEAST ILLINOIS

CITY           SKY/WX    TMP DP  RH WIND       PRES   REMARKS
OHARE            N/A     19  10  68 SW20G26   30.11S WCI   3
MIDWAY           N/A     20  11  68 SW18      30.15R WCI   5
AURORA           N/A     18  10  71 SW13      30.15R WCI   5
LANSING*         N/A     18  12  78 SW18G25   30.16F WCI   2
JOLIET*          N/A     20  12  70 SW8       30.18R WCI  10
WAUKEGAN         N/A     21  12  68 SW10G24   30.03F WCI  10
DUPAGE AIRPORT   N/A     16  10  77 SW14      30.12S HAZE    WCI   2
WHEELING         N/A     20  11  68 SW12      30.11F WCI   8
KANKAKEE*        N/A     18  10  70 SW13      30.21F WCI   5
MORRIS*          N/A     20  11  69 SW8       30.18R WCI  10
LEWIS AIRPORT*   N/A     19  12  73 SW15      30.17R WCI   5
NORTHERLY ISL    N/A     20  11  68 SW14        N/A  WCI   7
$$

WIZ051-052-058>065-066-070>072-181600-
SOUTHEAST WISCONSIN

CITY           SKY/WX    TMP DP  RH WIND       PRES   REMARKS
MILWAUKEE      PTSUNNY   22  12  65 W15G23    30.01F WCI   9
KENOSHA*         N/A     20  11  68 SW17G26   30.02F WCI   5
RACINE*          N/A     20  11  68 SW15G26   30.02F WCI   6
BURLINGTON       N/A     19  11  70 SW16      30.02F WCI   5
WAUKESHA       SUNNY     19  10  68 SW13      30.01S WCI   7
WEST BEND        N/A     21  14  73 SW15      29.96R WCI   8
$$

INZ001>003-010>013-019-020-181600-
NORTHWEST INDIANA

CITY           SKY/WX    TMP DP  RH WIND       PRES   REMARKS
GARY*          SUNNY     19  10  68 SW17      30.16F WCI   4
MICHIGAN CITY* NOT AVBL
RENSSELAER*    NOT AVBL
VALPARAISO       N/A     18  10  71 SW17      30.16F WCI   3
$$

LMZ740>746-181600-
SOUTHERN LAKE MICHIGAN

STATION/POSITION TIME  SKY/WX   TEMP WIND        PRES    VSBY
                                AIR  DIR/SP/G
                 (UTC)          (F)  (DEG/KT/KT) (MB)    (MI)
HARRISON CRIB    1410            21  220/ 24/ 27   N/A
BURNHAM HARBOR   1500            20  230/  8/ 18   N/A
CALUMET HARBOR   1442            19  210/ 10/ 14 1020.1F
BURNS HARBOR     1440            18  210/ 14/ 22 1021.3F
MICHIGAN CITY    1440            17  190/ 18/ 21   N/A
$$

ABBREVIATIONS USED IN REMARKS
   TC - TEMPERATURE IN CELSIUS
  WCI - WIND CHILL INDEX
   HX - HEAT INDEX
  VSB - VISIBILITY
$$




USA.gov is the U.S. government's official web portal to all federal, state and local government web resources and services.